FW3841 Weather Reports


time (UTC)temp
C
wind
direction
speed
KPH
gust
KPH
rain 1hr
cm
rain 24hr
cm
rain mn
cm
humidity
%
barometer
mb
20260507004042 14 317 1.6 8.0 0.00 0.00 0.00 79 1023.4
20260507003542 14 18 1.6 6.4 0.00 0.00 0.00 80 1023.5
20260507003053 15 103 1.6 6.4 0.00 0.00 0.00 79 1023.5
20260507002540 15 71 1.6 6.4 0.00 0.00 0.00 78 1023.4
20260507002041 15 331 1.6 6.4 0.00 0.00 0.00 80 1023.5
20260507001610 15 40 1.6 4.8 0.00 0.00 0.00 80 1023.4
20260507001040 14 306 0.0 8.0 0.00 0.00 0.00 79 1023.4
20260507000541 14 114 1.6 8.0 0.00 0.00 0.00 79 1023.3
20260507000050 15 336 1.6 4.8 0.00 0.00 0.00 80 1023.4
20260506235541 15 0 1.6 8.0 0.00 0.00 0.00 79 1023.3
20260506235040 15 329 3.2 8.0 0.00 0.00 0.00 79 1023.4
20260506234601 15 128 1.6 8.0 0.00 0.00 0.00 79 1023.3
20260506234041 15 0 0.0 9.7 0.00 0.00 0.00 78 1023.2
20260506233541 15 20 3.2 9.7 0.00 0.00 0.00 78 1023.3
20260506233053 15 13 1.6 8.0 0.00 0.00 0.00 79 1023.2
20260506232540 15 0 1.6 8.0 0.00 0.00 0.00 78 1023.2
20260506232040 15 232 0.0 8.0 0.00 0.00 0.00 79 1023.2
20260506231549 15 155 1.6 11.3 0.00 0.00 0.00 79 1023.2
20260506231040 15 182 1.6 11.3 0.00 0.00 0.00 78 1023.3
20260506230542 15 167 3.2 9.7 0.00 0.00 0.00 78 1023.3
20260506230056 15 98 3.2 8.0 0.00 0.00 0.00 78 1023.2
20260506225543 15 355 1.6 6.4 0.00 0.00 0.00 79 1023.3
20260506225041 15 146 0.0 9.7 0.00 0.00 0.00 80 1023.3
20260506224604 15 147 3.2 12.9 0.00 0.00 0.00 78 1023.3
20260506224040 15 138 1.6 12.9 0.00 0.00 0.00 78 1023.4
20260506223540 15 74 1.6 8.0 0.00 0.00 0.00 78 1023.4
20260506223054 16 135 0.0 3.2 0.00 0.00 0.00 78 1023.5
20260506222544 16 131 1.6 3.2 0.00 0.00 0.00 76 1023.5
20260506222042 16 0 1.6 3.2 0.00 0.00 0.00 78 1023.6
20260506221548 16 0 1.6 11.3 0.00 0.00 0.00 78 1023.6
20260506221041 16 60 1.6 11.3 0.00 0.00 0.00 77 1023.6
20260506220541 16 0 1.6 6.4 0.00 0.00 0.00 77 1023.6
20260506220106 16 97 1.6 6.4 0.00 0.00 0.00 79 1023.7
20260506215541 16 278 1.6 6.4 0.00 0.00 0.00 76 1023.6
20260506215041 16 296 1.6 6.4 0.00 0.00 0.00 78 1023.7
20260506214549 16 94 1.6 6.4 0.00 0.00 0.00 77 1023.6
20260506214039 16 186 0.0 8.0 0.00 0.00 0.00 77 1023.6
20260506213538 16 181 3.2 8.0 0.00 0.00 0.00 76 1023.6
20260506213051 16 342 0.0 6.4 0.00 0.00 0.00 79 1023.6
20260506212539 15 107 1.6 6.4 0.00 0.00 0.00 79 1023.6
20260506212040 15 315 1.6 8.0 0.00 0.00 0.00 78 1023.7
20260506211555 15 244 1.6 8.0 0.00 0.00 0.00 78 1023.6
20260506211039 15 78 3.2 6.4 0.00 0.00 0.00 76 1023.5
20260506210540 15 302 1.6 4.8 0.00 0.00 0.00 77 1023.6
20260506210126 15 171 1.6 6.4 0.00 0.00 0.00 78 1023.6
20260506205539 15 84 1.6 6.4 0.00 0.00 0.00 78 1023.6
20260506205041 15 26 1.6 6.4 0.00 0.00 0.00 75 1023.6
20260506204550 15 59 1.6 6.4 0.00 0.00 0.00 77 1023.5
20260506204039 15 218 0.0 4.8 0.00 0.00 0.00 78 1023.6
20260506203540 15 175 1.6 6.4 0.00 0.00 0.00 77 1023.6
20260506203100 15 0 1.6 6.4 0.00 0.00 0.00 77 1023.5
20260506202541 15 355 0.0 8.0 0.00 0.00 0.00 77 1023.5
20260506202039 15 355 1.6 8.0 0.00 0.00 0.00 77 1023.6
20260506201553 15 0 1.6 6.4 0.00 0.00 0.00 76 1023.5
20260506201041 15 59 1.6 4.8 0.00 0.00 0.00 78 1023.5
20260506200541 15 65 1.6 6.4 0.00 0.00 0.00 77 1023.6
20260506200052 15 0 0.0 6.4 0.00 0.00 0.00 78 1023.5
20260506195540 15 0 1.6 6.4 0.00 0.00 0.00 76 1023.6
20260506195041 15 128 1.6 6.4 0.00 0.00 0.00 77 1023.6
20260506194554 15 49 1.6 4.8 0.00 0.00 0.00 77 1023.5
20260506194042 15 269 1.6 6.4 0.00 0.00 0.00 77 1023.4
20260506193543 15 5 1.6 8.0 0.00 0.00 0.00 77 1023.6
20260506193051 15 178 1.6 8.0 0.00 0.00 0.00 75 1023.6
20260506192541 15 172 3.2 8.0 0.00 0.00 0.00 78 1023.4
20260506192040 15 28 1.6 8.0 0.00 0.00 0.00 76 1023.5
20260506191552 15 88 3.2 8.0 0.00 0.00 0.00 76 1023.4
20260506191040 15 0 1.6 6.4 0.00 0.00 0.00 76 1023.4
20260506190542 15 0 0.0 6.4 0.00 0.00 0.00 78 1023.3
20260506190053 15 78 1.6 6.4 0.00 0.00 0.00 77 1023.4
20260506185540 15 149 1.6 9.7 0.00 0.00 0.00 77 1023.4
20260506185040 15 0 1.6 11.3 0.00 0.00 0.00 77 1023.5
20260506184553 15 207 3.2 11.3 0.00 0.00 0.00 77 1023.5
20260506184041 14 157 1.6 9.7 0.00 0.00 0.00 79 1023.6
20260506183543 14 355 3.2 9.7 0.00 0.00 0.00 78 1023.5
20260506183100 14 93 0.0 4.8 0.00 0.00 0.00 79 1023.6
20260506182541 13 45 1.6 4.8 0.00 0.00 0.00 79 1023.4
20260506182040 13 355 1.6 6.4 0.00 0.00 0.00 77 1023.4
20260506181608 13 216 0.0 6.4 0.00 0.00 0.00 81 1023.5
20260506181041 13 188 1.6 9.7 0.00 0.00 0.00 81 1023.4
20260506180541 13 348 3.2 9.7 0.00 0.00 0.00 79 1023.5
20260506180052 13 56 0.0 8.0 0.00 0.00 0.00 81 1023.6
20260506175540 13 319 3.2 8.0 0.00 0.00 0.00 81 1023.5
20260506175042 13 350 1.6 6.4 0.00 0.00 0.00 81 1023.6
20260506174551 13 95 1.6 8.0 0.00 0.00 0.00 81 1023.4
20260506174042 13 155 1.6 8.0 0.00 0.00 0.00 82 1023.5
20260506173542 13 0 1.6 6.4 0.00 0.00 0.00 82 1023.4
20260506173122 13 86 1.6 6.4 0.00 0.00 0.00 82 1023.3
20260506172541 13 0 1.6 6.4 0.00 0.00 0.00 83 1023.2
20260506172041 12 231 1.6 6.4 0.00 0.00 0.00 83 1023.2
20260506171601 12 0 1.6 6.4 0.00 0.00 0.00 83 1023.1
20260506171043 12 269 1.6 4.8 0.00 0.00 0.00 83 1023.0
20260506170541 12 0 0.0 4.8 0.00 0.00 0.00 84 1023.1
20260506165543 12 308 1.6 9.7 0.00 0.00 0.00 84 1023.1
20260506165041 12 335 1.6 6.4 0.00 0.00 0.00 84 1023.1
20260506164553 12 306 0.0 4.8 0.00 0.00 0.00 85 1023.1
20260506164040 12 348 1.6 8.0 0.00 0.00 0.00 85 1022.9
20260506163542 12 331 0.0 8.0 0.00 0.00 0.00 85 1022.9
20260506163055 12 183 1.6 4.8 0.00 0.00 0.00 85 1022.8
20260506162542 12 280 1.6 4.8 0.00 0.00 0.00 85 1022.9
20260506162044 11 44 0.0 4.8 0.00 0.00 0.00 86 1023.0
20260506161551 11 313 1.6 4.8 0.00 0.00 0.00 86 1022.8
20260506161040 11 0 1.6 4.8 0.00 0.00 0.00 86 1023.0
20260506160540 11 13 1.6 4.8 0.00 0.00 0.00 86 1022.9
20260506160109 11 9 0.0 6.4 0.00 0.00 0.00 86 1022.9
20260506155538 11 0 0.0 6.4 0.00 0.00 0.00 86 1022.8
20260506155039 11 0 0.0 4.8 0.00 0.00 0.00 86 1022.7
20260506154554 11 0 0.0 4.8 0.00 0.00 0.00 86 1022.8
20260506154042 11 99 0.0 3.2 0.00 0.00 0.00 86 1022.6
20260506153540 11 0 0.0 3.2 0.00 0.00 0.00 86 1022.7
20260506153050 11 324 0.0 3.2 0.00 0.00 0.00 87 1022.7
20260506152541 11 0 0.0 4.8 0.00 0.00 0.00 86 1022.7
20260506152041 11 327 0.0 4.8 0.00 0.00 0.00 86 1022.7
20260506151555 11 315 0.0 4.8 0.00 0.00 0.00 87 1022.5
20260506151040 11 62 0.0 3.2 0.00 0.00 0.00 87 1022.6
20260506150543 11 71 0.0 6.4 0.00 0.00 0.00 87 1022.3
20260506150052 11 0 1.6 6.4 0.00 0.00 0.00 87 1022.3
20260506145541 11 0 1.6 6.4 0.00 0.00 0.00 88 1022.4
20260506145040 11 0 1.6 6.4 0.00 0.00 0.00 87 1021.9
20260506144554 11 221 0.0 4.8 0.00 0.00 0.00 88 1021.9
20260506144040 11 153 1.6 6.4 0.00 0.00 0.00 88 1021.9
20260506143540 11 161 0.0 6.4 0.00 0.00 0.00 88 1022.1
20260506143053 11 162 1.6 6.4 0.00 0.00 0.00 88 1022.3
20260506142540 10 0 0.0 3.2 0.00 0.00 0.00 89 1022.6
20260506142045 10 71 0.0 4.8 0.00 0.00 0.00 89 1022.6
20260506141554 10 71 0.0 4.8 0.00 0.00 0.00 88 1022.4
20260506141044 10 0 0.0 1.6 0.00 0.00 0.00 89 1022.5
20260506140544 10 0 0.0 3.2 0.00 0.00 0.00 89 1022.5
20260506140056 10 355 0.0 3.2 0.00 0.00 0.00 89 1022.6
20260506135541 10 0 0.0 3.2 0.00 0.00 0.00 89 1022.7
20260506135040 10 0 0.0 3.2 0.00 0.00 0.00 89 1022.6
20260506134559 10 0 0.0 3.2 0.00 0.00 0.00 89 1022.5
20260506134040 10 143 0.0 3.2 0.00 0.00 0.00 89 1022.4
20260506133542 10 0 0.0 3.2 0.00 0.00 0.00 89 1022.5
20260506133058 10 0 0.0 1.6 0.00 0.00 0.00 89 1022.2
20260506132541 10 0 0.0 1.6 0.00 0.00 0.00 89 1022.1
20260506132044 10 0 0.0 3.2 0.00 0.00 0.00 89 1022.1
20260506131602 10 0 0.0 3.2 0.00 0.00 0.00 89 1022.0
20260506131041 10 0 0.0 3.2 0.00 0.00 0.00 89 1022.0
20260506130541 10 0 0.0 3.2 0.00 0.00 0.00 89 1022.0
20260506130054 10 0 0.0 3.2 0.00 0.00 0.00 89 1022.1
20260506125540 10 143 0.0 3.2 0.00 0.00 0.00 89 1022.0
20260506125040 10 0 0.0 3.2 0.00 0.00 0.00 89 1022.0
20260506124558 10 146 0.0 4.8 0.00 0.00 0.00 89 1021.8
20260506124040 10 0 0.0 4.8 0.00 0.00 0.00 89 1021.9
20260506123541 10 0 0.0 1.6 0.00 0.00 0.00 89 1021.8
20260506123051 10 0 0.0 6.4 0.00 0.00 0.00 88 1021.8
20260506122543 10 0 0.0 6.4 0.00 0.00 0.00 88 1021.7
20260506122042 10 0 0.0 1.6 0.00 0.00 0.00 89 1021.6
20260506121553 10 0 0.0 3.2 0.00 0.00 0.00 89 1021.6
20260506121042 10 0 0.0 3.2 0.00 0.00 0.00 89 1021.5
20260506120545 10 0 0.0 3.2 0.00 0.00 0.00 88 1021.5
20260506120056 10 101 0.0 3.2 0.00 0.00 0.00 88 1021.6
20260506115541 10 0 0.0 1.6 0.00 0.00 0.00 88 1021.6
20260506115041 10 0 0.0 3.2 0.00 0.00 0.00 88 1021.6
20260506114556 10 0 0.0 3.2 0.00 0.00 0.00 88 1021.6
20260506114042 10 0 0.0 3.2 0.00 0.00 0.00 88 1021.4
20260506113542 10 40 0.0 3.2 0.00 0.00 0.00 88 1021.3
20260506113054 10 35 0.0 3.2 0.00 0.00 0.00 88 1021.4
20260506112545 10 34 0.0 4.8 0.00 0.00 0.00 88 1021.4
20260506112042 10 0 0.0 4.8 0.00 0.00 0.00 88 1021.5
20260506111549 10 0 0.0 3.2 0.00 0.00 0.00 89 1021.5
20260506111042 10 0 0.0 4.8 0.00 0.00 0.00 88 1021.4
20260506110542 11 82 0.0 4.8 0.00 0.00 0.00 88 1021.3
20260506110103 11 77 0.0 3.2 0.00 0.00 0.00 89 1021.2
20260506105539 11 0 0.0 4.8 0.00 0.00 0.00 88 1021.3
20260506105044 11 158 0.0 8.0 0.00 0.00 0.00 89 1021.1
20260506104555 11 0 0.0 8.0 0.00 0.00 0.00 88 1021.0
20260506104042 11 0 0.0 3.2 0.00 0.00 0.00 89 1021.0
20260506103542 11 0 0.0 3.2 0.00 0.00 0.00 89 1021.0
20260506103050 11 0 0.0 3.2 0.00 0.00 0.00 89 1021.0
20260506102542 11 0 0.0 4.8 0.00 0.00 0.00 89 1020.9
20260506102043 11 189 0.0 4.8 0.00 0.00 0.00 89 1021.0
20260506101549 11 337 0.0 3.2 0.00 0.00 0.00 89 1021.0
20260506101043 11 0 0.0 3.2 0.00 0.00 0.00 89 1020.9
20260506100542 11 336 0.0 6.4 0.00 0.00 0.00 89 1020.9
20260506100050 11 323 0.0 6.4 0.00 0.00 0.00 89 1020.9
20260506095546 11 0 0.0 4.8 0.00 0.00 0.00 89 1020.8
20260506095042 11 0 0.0 4.8 0.00 0.00 0.00 89 1020.9
20260506094607 11 107 0.0 4.8 0.00 0.00 0.00 89 1020.7
20260506094042 11 355 1.6 4.8 0.00 0.00 0.00 89 1020.8
20260506093542 11 0 0.0 4.8 0.00 0.00 0.00 89 1020.7
20260506093051 11 0 0.0 4.8 0.00 0.00 0.00 89 1020.6
20260506092542 11 268 0.0 4.8 0.00 0.00 0.00 89 1020.7
20260506092042 11 355 0.0 4.8 0.00 0.00 0.00 89 1020.6
20260506091553 11 0 1.6 4.8 0.00 0.00 0.00 89 1020.5
20260506091041 11 0 0.0 4.8 0.00 0.00 0.00 89 1020.5
20260506090543 11 123 1.6 4.8 0.00 0.00 0.00 89 1020.5
20260506090051 11 0 0.0 3.2 0.00 0.00 0.00 89 1020.5
20260506085542 11 136 0.0 3.2 0.00 0.00 0.00 89 1020.5
20260506085043 11 0 0.0 3.2 0.00 0.00 0.00 89 1020.5
20260506084551 11 0 0.0 3.2 0.00 0.00 0.00 89 1020.5
20260506084042 11 0 0.0 3.2 0.00 0.00 0.00 89 1020.5
20260506083545 11 156 0.0 8.0 0.00 0.00 0.00 89 1020.5
20260506083050 11 0 0.0 8.0 0.00 0.00 0.00 89 1020.5
20260506082542 11 0 0.0 1.6 0.00 0.00 0.00 89 1020.5
20260506082039 11 159 0.0 1.6 0.00 0.00 0.00 89 1020.5
20260506081554 11 0 0.0 1.6 0.00 0.00 0.00 89 1020.5
20260506081043 11 0 0.0 3.2 0.00 0.00 0.00 89 1020.4
20260506080542 11 0 0.0 3.2 0.00 0.00 0.00 89 1020.3
20260506073048 11 0 0.0 1.6 0.00 0.00 0.00 89 1020.0
20260506072543 11 0 0.0 1.6 0.00 0.00 0.00 89 1020.0
20260506072043 11 18 0.0 3.2 0.00 0.00 0.00 90 1019.9
20260506071550 11 0 0.0 3.2 0.00 0.00 0.00 90 1019.9
20260506071039 11 99 0.0 1.6 0.00 0.00 0.00 90 1019.9
20260506070542 11 0 0.0 1.6 0.00 0.00 0.00 90 1019.9
20260506062046 11 0 0.0 1.6 0.00 0.00 0.00 91 1019.7
20260506061554 11 0 0.0 1.6 0.00 0.00 0.00 91 1019.6
20260506061042 11 0 0.0 1.6 0.00 0.00 0.00 91 1019.6
20260506060542 11 0 0.0 0.0 0.00 0.00 0.00 90 1019.7
20260506051040 11 0 0.0 0.0 0.00 0.00 0.00 88 1019.6
20260506050540 11 0 0.0 1.6 0.00 0.00 0.00 88 1019.5
20260506045043 11 0 0.0 0.0 0.00 0.00 0.00 88 1019.5
20260506044603 11 0 0.0 1.6 0.00 0.00 0.00 88 1019.4
20260506044040 11 0 0.0 1.6 0.00 0.00 0.00 87 1019.4
20260506043544 11 0 0.0 1.6 0.00 0.00 0.00 87 1019.3
20260506043050 11 0 0.0 1.6 0.00 0.00 0.00 87 1019.2
20260506042541 12 0 0.0 1.6 0.00 0.00 0.00 87 1019.2
20260506042041 12 320 0.0 1.6 0.00 0.00 0.00 86 1019.1
20260506041555 12 0 0.0 1.6 0.00 0.00 0.00 86 1019.0
20260506041040 12 0 0.0 1.6 0.00 0.00 0.00 86 1018.9
20260506040540 12 0 0.0 1.6 0.00 0.00 0.00 86 1018.9
20260506040054 12 0 0.0 1.6 0.00 0.00 0.00 85 1018.7
20260506035544 12 0 0.0 1.6 0.00 0.00 0.00 85 1018.6
20260506035040 13 0 0.0 1.6 0.00 0.00 0.00 85 1018.5
20260506034552 13 0 0.0 1.6 0.00 0.00 0.00 85 1018.4
20260506034043 13 0 0.0 1.6 0.00 0.00 0.00 84 1018.4
20260506033540 13 320 0.0 1.6 0.00 0.00 0.00 84 1018.3
20260506033055 13 0 0.0 1.6 0.00 0.00 0.00 83 1018.2
20260506032544 13 0 0.0 1.6 0.00 0.00 0.00 83 1018.1
20260506032041 14 0 0.0 0.0 0.00 0.00 0.00 83 1018.1
20260506031557 14 0 0.0 0.0 0.00 0.00 0.00 82 1018.1
20260506031044 14 0 0.0 0.0 0.00 0.00 0.00 82 1018.0
20260506030543 15 0 0.0 1.6 0.00 0.00 0.00 81 1017.9
20260506030052 15 0 0.0 1.6 0.00 0.00 0.00 81 1017.8
20260506025540 15 0 0.0 9.7 0.00 0.00 0.00 80 1017.8
20260506025040 15 320 1.6 9.7 0.00 0.00 0.00 80 1017.7
20260506024559 15 265 1.6 6.4 0.00 0.00 0.00 80 1017.6
20260506024041 15 320 1.6 6.4 0.00 0.00 0.00 79 1017.7
20260506023541 15 312 0.0 1.6 0.00 0.00 0.00 80 1017.6
20260506023058 15 0 0.0 4.8 0.00 0.00 0.00 80 1017.6
20260506022540 16 0 0.0 6.4 0.00 0.00 0.00 79 1017.6
20260506022040 16 313 0.0 6.4 0.00 0.00 0.00 79 1017.6
20260506021552 16 211 0.0 4.8 0.00 0.00 0.00 78 1017.6
20260506021040 16 118 0.0 3.2 0.00 0.00 0.00 78 1017.7
20260506020540 16 0 0.0 3.2 0.00 0.00 0.00 79 1017.6
20260506020054 16 0 0.0 3.2 0.00 0.00 0.00 78 1017.5
20260506015544 16 0 0.0 3.2 0.00 0.00 0.00 77 1017.6
20260506015041 16 304 0.0 3.2 0.00 0.00 0.00 77 1017.6
20260506014556 16 0 1.6 3.2 0.00 0.00 0.00 77 1017.4
20260506014043 16 285 0.0 4.8 0.00 0.00 0.00 77 1017.5
20260506013540 16 0 1.6 4.8 0.00 0.00 0.00 76 1017.5
20260506013051 16 332 1.6 4.8 0.00 0.00 0.00 76 1017.4
20260506012540 17 229 1.6 6.4 0.00 0.00 0.00 76 1017.5
20260506012044 17 89 0.0 6.4 0.00 0.00 0.00 74 1017.4
20260506011553 17 299 3.2 9.7 0.00 0.00 0.00 74 1017.3
20260506011041 17 329 1.6 9.7 0.00 0.00 0.00 73 1017.2
20260506010545 17 322 0.0 6.4 0.00 0.00 0.00 74 1017.4
20260506010052 17 333 0.0 6.4 0.00 0.00 0.00 73 1017.4
20260506005541 17 5 1.6 9.7 0.00 0.00 0.00 72 1017.4
20260506005040 18 312 1.6 12.9 0.00 0.00 0.00 72 1017.5
20260506004555 18 270 1.6 12.9 0.00 0.00 0.00 71 1017.4